Precipitable_Water
0.78 0.81 0.83 0.82 0.80 0.76 0.75 0.76 0.71 0.62 0.62 0.56 0.57 0.60 0.61 0.77 0.86 1.07 1.03 1.00 1.02 0.98 0.96 0.91 0.86 0.89 0.70 0.53 0.44 0.60 0.65 0.68 0.64 0.51 0.41 0.39 0.34 0.30 0.24 0.25 0.27 0.28 0.31 0.36 0.39 0.41 0.43
0.81 0.88 0.89 0.88 0.86 0.84 0.82 0.80 0.75 0.67 0.59 0.60 0.55 0.54 0.56 0.70 0.79 0.96 0.99 0.94 0.95 0.93 0.96 0.88 0.84 0.83 0.61 0.38 0.47 0.54 0.56 0.53 0.47 0.46 0.42 0.40 0.34 0.34 0.28 0.26 0.25 0.26 0.25 0.27 0.31 0.35 0.42
0.87 0.91 0.91 0.88 0.86 0.87 0.84 0.81 0.78 0.71 0.64 0.59 0.55 0.52 0.53 0.70 0.74 0.87 0.94 0.95 0.90 0.97 0.88 0.81 0.82 0.76 0.52 0.43 0.47 0.49 0.47 0.46 0.51 0.46 0.39 0.42 0.42 0.36 0.35 0.29 0.35 0.32 0.27 0.25 0.25 0.31 0.35
0.88 0.91 0.88 0.88 0.85 0.83 0.81 0.81 0.80 0.73 0.67 0.61 0.58 0.51 0.50 0.64 0.89 0.92 0.92 0.99 0.92 0.86 0.76 0.72 0.84 0.67 0.43 0.51 0.48 0.45 0.46 0.46 0.53 0.53 0.48 0.50 0.49 0.40 0.37 0.41 0.36 0.31 0.31 0.24 0.22 0.24 0.31
0.89 0.88 0.86 0.87 0.87 0.86 0.83 0.79 0.75 0.75 0.74 0.65 0.59 0.50 0.47 0.55 0.67 0.85 0.98 0.85 0.81 0.85 0.76 0.80 0.70 0.55 0.37 0.53 0.40 0.44 0.47 0.45 0.50 0.53 0.52 0.52 0.48 0.41 0.42 0.31 0.27 0.30 0.21 0.24 0.24 0.24 0.31
0.82 0.85 0.84 0.84 0.85 0.84 0.80 0.77 0.77 0.74 0.75 0.68 0.60 0.47 0.57 0.58 0.68 0.77 0.83 0.93 0.88 0.81 0.79 0.73 0.59 0.39 0.43 0.37 0.47 0.49 0.54 0.50 0.42 0.43 0.42 0.40 0.40 0.34 0.35 0.31 0.19 0.25 0.26 0.23 0.22 0.21 0.31
0.77 0.76 0.77 0.79 0.78 0.78 0.76 0.77 0.77 0.76 0.75 0.69 0.64 0.51 0.69 0.95 0.77 0.81 0.85 0.79 0.61 0.54 0.59 0.39 0.37 0.39 0.40 0.47 0.54 0.51 0.57 0.53 0.48 0.42 0.32 0.40 0.33 0.25 0.31 0.35 0.35 0.31 0.26 0.23 0.28 0.22 0.35
0.71 0.72 0.75 0.78 0.81 0.80 0.79 0.79 0.80 0.77 0.73 0.66 0.65 0.56 0.69 0.81 0.91 0.89 0.89 0.58 0.60 0.61 0.40 0.45 0.42 0.45 0.51 0.54 0.43 0.51 0.61 0.48 0.45 0.37 0.43 0.39 0.30 0.36 0.41 0.38 0.34 0.33 0.24 0.23 0.27 0.35 0.33
0.76 0.76 0.75 0.77 0.74 0.81 0.79 0.81 0.76 0.76 0.67 0.63 0.59 0.54 0.60 0.69 0.80 0.88 0.74 0.67 0.66 0.63 0.37 0.36 0.42 0.47 0.51 0.55 0.46 0.49 0.58 0.54 0.46 0.42 0.41 0.34 0.36 0.43 0.39 0.31 0.26 0.27 0.25 0.29 0.35 0.34 0.38
0.72 0.71 0.72 0.73 0.74 0.75 0.77 0.76 0.77 0.73 0.68 0.61 0.56 0.60 0.68 0.75 0.62 0.68 0.65 0.84 0.69 0.63 0.25 0.25 0.36 0.47 0.52 0.54 0.47 0.64 0.65 0.57 0.47 0.37 0.40 0.36 0.42 0.37 0.33 0.28 0.29 0.24 0.34 0.38 0.37 0.30 0.24
0.68 0.66 0.70 0.73 0.76 0.78 0.78 0.77 0.73 0.71 0.65 0.58 0.55 0.68 0.88 0.75 0.73 0.62 0.79 0.81 0.72 0.52 0.12 0.27 0.38 0.57 0.54 0.50 0.53 0.57 0.71 0.59 0.40 0.38 0.38 0.32 0.34 0.33 0.32 0.31 0.34 0.31 0.40 0.38 0.43 0.37 0.34
0.68 0.66 0.71 0.71 0.73 0.74 0.76 0.76 0.74 0.72 0.66 0.57 0.56 0.70 0.89 0.68 0.75 0.80 0.83 0.72 0.55 0.20 0.11 0.23 0.40 0.40 0.42 0.49 0.51 0.59 0.60 0.63 0.55 0.41 0.42 0.37 0.47 0.44 0.41 0.43 0.42 0.45 0.42 0.45 0.47 0.41 0.25
0.70 0.65 0.62 0.62 0.67 0.69 0.75 0.77 0.75 0.73 0.66 0.62 0.57 0.69 0.77 0.73 0.64 0.84 0.80 0.55 0.21 0.13 0.21 0.25 0.33 0.38 0.40 0.39 0.43 0.48 0.48 0.47 0.39 0.31 0.29 0.37 0.39 0.47 0.52 0.42 0.49 0.47 0.41 0.29 0.27 0.28 0.22
0.74 0.68 0.63 0.61 0.67 0.72 0.74 0.73 0.70 0.72 0.68 0.62 0.54 0.66 0.71 0.75 0.90 0.84 0.67 0.33 0.14 0.18 0.22 0.34 0.36 0.36 0.34 0.39 0.39 0.42 0.44 0.42 0.49 0.42 0.36 0.29 0.27 0.40 0.51 0.49 0.44 0.44 0.41 0.30 0.23 0.24 0.26
0.79 0.77 0.73 0.70 0.71 0.75 0.73 0.73 0.72 0.69 0.67 0.59 0.63 0.68 0.67 0.79 0.88 0.83 0.48 0.22 0.19 0.21 0.29 0.32 0.33 0.30 0.31 0.35 0.35 0.37 0.39 0.41 0.45 0.47 0.37 0.35 0.31 0.49 0.53 0.54 0.51 0.43 0.34 0.41 0.35 0.34 0.29
0.84 0.83 0.77 0.74 0.70 0.71 0.71 0.69 0.65 0.62 0.58 0.60 0.65 0.63 0.63 0.87 0.90 0.71 0.35 0.25 0.24 0.30 0.36 0.33 0.24 0.29 0.25 0.29 0.31 0.33 0.36 0.46 0.45 0.50 0.54 0.42 0.29 0.43 0.47 0.53 0.53 0.43 0.43 0.33 0.34 0.23 0.23
0.80 0.83 0.82 0.73 0.67 0.67 0.68 0.64 0.61 0.58 0.60 0.69 0.59 0.47 0.70 0.89 0.81 0.52 0.26 0.26 0.27 0.35 0.38 0.30 0.26 0.24 0.26 0.27 0.31 0.31 0.33 0.43 0.47 0.48 0.52 0.48 0.39 0.35 0.43 0.40 0.38 0.38 0.33 0.31 0.31 0.27 0.21
0.78 0.71 0.75 0.68 0.67 0.64 0.62 0.61 0.62 0.61 0.69 0.67 0.52 0.34 0.73 0.84 0.49 0.36 0.26 0.30 0.33 0.33 0.37 0.32 0.31 0.28 0.27 0.29 0.28 0.30 0.32 0.38 0.49 0.51 0.42 0.47 0.41 0.31 0.34 0.44 0.44 0.43 0.35 0.32 0.27 0.21 0.24
0.80 0.66 0.65 0.64 0.60 0.57 0.56 0.56 0.61 0.65 0.67 0.57 0.50 0.55 0.79 0.74 0.34 0.26 0.30 0.30 0.32 0.30 0.29 0.29 0.28 0.29 0.32 0.28 0.26 0.30 0.31 0.43 0.47 0.45 0.42 0.45 0.37 0.28 0.28 0.34 0.37 0.32 0.32 0.32 0.31 0.32 0.23
0.79 0.81 0.75 0.73 0.64 0.59 0.61 0.63 0.67 0.75 0.85 0.78 0.61 0.45 0.54 0.50 0.39 0.29 0.26 0.25 0.23 0.34 0.30 0.30 0.29 0.31 0.28 0.25 0.30 0.26 0.29 0.35 0.42 0.41 0.42 0.43 0.35 0.32 0.26 0.28 0.31 0.27 0.28 0.28 0.28 0.24 0.23
0.86 0.80 0.76 0.77 0.80 0.80 0.80 0.80 0.81 0.85 0.87 0.77 0.59 0.45 0.46 0.30 0.28 0.28 0.31 0.28 0.22 0.22 0.30 0.30 0.26 0.28 0.26 0.21 0.24 0.23 0.27 0.30 0.35 0.38 0.38 0.38 0.26 0.29 0.30 0.31 0.31 0.27 0.26 0.27 0.24 0.27 0.24
0.79 0.83 0.81 0.77 0.77 0.84 0.88 0.87 0.85 0.85 0.84 0.73 0.54 0.42 0.38 0.34 0.30 0.27 0.29 0.27 0.22 0.25 0.27 0.23 0.23 0.28 0.28 0.24 0.25 0.23 0.26 0.27 0.27 0.32 0.31 0.35 0.25 0.27 0.22 0.26 0.26 0.22 0.25 0.26 0.25 0.27 0.27
0.77 0.81 0.83 0.82 0.82 0.83 0.84 0.86 0.85 0.84 0.87 0.70 0.64 0.55 0.40 0.29 0.26 0.24 0.26 0.29 0.26 0.28 0.29 0.30 0.29 0.28 0.26 0.29 0.34 0.34 0.34 0.34 0.33 0.29 0.25 0.24 0.23 0.21 0.16 0.21 0.19 0.16 0.20 0.21 0.23 0.25 0.25
0.73 0.82 0.84 0.82 0.79 0.78 0.78 0.80 0.82 0.83 0.83 0.62 0.48 0.41 0.27 0.20 0.23 0.24 0.28 0.31 0.29 0.29 0.26 0.29 0.32 0.29 0.36 0.42 0.38 0.36 0.33 0.32 0.31 0.30 0.32 0.23 0.21 0.20 0.14 0.15 0.08 0.18 0.24 0.23 0.20 0.22 0.25
0.69 0.76 0.82 0.80 0.77 0.76 0.76 0.73 0.69 0.68 0.68 0.59 0.48 0.38 0.28 0.20 0.25 0.26 0.28 0.31 0.33 0.33 0.30 0.30 0.34 0.41 0.44 0.36 0.28 0.22 0.22 0.23 0.23 0.27 0.27 0.28 0.21 0.15 0.13 0.11 0.13 0.15 0.18 0.19 0.17 0.17 0.23
0.62 0.69 0.75 0.78 0.78 0.79 0.80 0.77 0.73 0.67 0.61 0.57 0.48 0.47 0.35 0.23 0.23 0.30 0.30 0.34 0.29 0.29 0.30 0.33 0.42 0.47 0.42 0.31 0.24 0.16 0.13 0.15 0.15 0.19 0.26 0.25 0.24 0.18 0.14 0.10 0.08 0.16 0.22 0.27 0.25 0.14 0.25
0.58 0.67 0.73 0.77 0.78 0.84 0.84 0.83 0.76 0.74 0.65 0.56 0.49 0.50 0.38 0.27 0.30 0.34 0.31 0.31 0.38 0.34 0.31 0.33 0.35 0.37 0.41 0.28 0.21 0.18 0.16 0.20 0.15 0.14 0.16 0.18 0.18 0.15 0.14 0.12 0.13 0.21 0.25 0.28 0.12 0.15 0.24
0.55 0.65 0.73 0.77 0.77 0.81 0.84 0.82 0.82 0.76 0.67 0.58 0.48 0.50 0.41 0.30 0.32 0.39 0.40 0.36 0.37 0.36 0.29 0.35 0.34 0.36 0.33 0.26 0.23 0.22 0.19 0.21 0.18 0.20 0.18 0.17 0.15 0.15 0.16 0.13 0.10 0.25 0.24 0.16 0.22 0.25 0.26
0.54 0.66 0.78 0.76 0.78 0.80 0.85 0.83 0.82 0.77 0.72 0.66 0.46 0.51 0.51 0.37 0.35 0.45 0.46 0.49 0.46 0.45 0.40 0.39 0.37 0.35 0.39 0.30 0.27 0.26 0.21 0.22 0.20 0.15 0.25 0.17 0.20 0.18 0.18 0.18 0.24 0.26 0.26 0.30 0.30 0.27 0.28
Wind_Speed
43 43 43 43 42 41 40 38 36 36 36 35 35 33 32 32 31 31 28 26 24 23 22 21 19 19 20 19 19 16 16 16 18 21 22 23 24 26 29 29 32 37 38 40 40 40 41
45 46 45 44 43 42 40 38 36 35 35 35 35 33 31 30 29 29 27 24 22 20 19 18 17 17 17 16 15 15 14 15 16 17 18 20 21 23 27 29 31 32 34 37 40 40 39
49 47 46 45 43 41 39 38 37 35 34 33 33 31 29 26 27 25 25 22 20 19 18 16 15 15 15 15 14 12 12 13 14 15 16 16 18 19 19 23 25 28 34 37 39 38 40
51 50 47 45 43 41 40 38 36 35 32 30 29 28 25 23 19 22 21 19 17 16 14 14 13 13 13 13 12 11 11 13 13 14 14 14 16 19 20 20 23 25 27 28 31 36 36
53 50 47 44 42 40 38 37 35 34 31 29 26 25 24 24 23 23 20 18 15 13 11 10 9 10 12 9 9 10 11 12 13 13 14 15 15 16 15 17 18 20 22 23 25 29 31
53 50 46 43 39 37 36 33 32 31 30 28 25 24 22 24 22 22 19 15 12 10 8 8 8 9 9 7 6 8 10 11 11 12 13 14 13 14 13 14 17 12 17 22 21 24 30
55 50 46 42 39 36 33 31 29 27 26 24 21 19 15 15 19 20 18 13 11 10 11 8 5 6 5 5 6 7 8 9 10 11 13 10 13 15 16 18 19 16 16 16 16 21 26
49 44 39 35 31 29 27 25 23 20 20 19 18 16 16 16 19 18 17 13 11 8 6 8 4 6 5 5 6 6 5 7 7 11 11 10 15 15 13 12 13 14 10 9 8 15 24
43 38 33 30 28 25 24 21 17 16 15 15 15 14 17 18 23 19 14 11 10 7 4 4 4 3 2 2 5 5 4 7 10 12 11 11 8 3 6 7 8 9 10 7 7 19 19
42 36 31 26 24 21 18 14 14 12 11 9 11 13 14 25 20 18 13 11 10 6 3 3 2 1 2 2 6 5 5 6 8 8 6 3 3 4 4 6 9 6 6 4 19 21 14
44 31 24 20 17 14 11 11 9 6 4 3 13 15 21 20 17 17 10 12 7 7 5 6 4 3 3 2 6 4 6 6 6 7 7 8 8 12 11 10 11 7 4 11 14 10 15
40 31 21 16 13 10 8 5 5 4 4 8 15 17 24 17 15 14 11 14 7 6 5 5 5 4 3 3 5 6 6 7 9 10 10 10 12 11 9 9 9 6 10 6 7 6 11
36 31 21 14 10 9 5 1 4 6 9 12 19 19 21 17 15 14 14 9 7 6 8 7 5 5 4 6 7 6 5 7 7 7 10 9 10 8 7 7 9 6 3 8 7 8 9
35 28 22 14 9 7 5 6 8 13 16 18 20 20 19 17 14 13 13 9 8 9 9 8 8 6 6 6 6 8 7 5 7 7 6 6 4 5 5 4 5 7 4 8 9 9 11
35 27 19 13 9 10 10 11 15 20 22 23 24 22 17 18 15 13 11 9 9 10 10 10 8 6 7 6 6 6 9 10 8 7 5 6 7 6 8 8 8 9 11 10 12 16 12
35 23 13 10 11 14 14 18 22 24 26 26 25 21 17 16 13 10 10 10 10 10 10 7 5 5 7 8 7 7 8 9 6 6 6 7 8 7 7 6 10 12 10 10 10 11 13
46 31 17 18 21 22 24 26 29 30 29 27 22 18 16 14 12 10 11 10 11 11 8 5 6 6 8 8 10 9 9 10 9 7 6 6 6 6 7 10 11 11 11 9 8 9 11
56 49 37 32 31 31 30 30 30 29 26 23 18 14 15 14 11 10 12 10 11 10 7 6 6 8 9 8 9 10 11 10 10 9 9 10 10 10 10 9 9 8 10 8 6 7 9
49 51 43 37 34 32 31 30 29 26 23 19 16 16 14 10 11 13 13 12 11 9 8 8 8 10 8 8 7 8 9 11 11 11 10 9 9 10 7 9 9 9 8 7 6 6 6
41 44 44 38 32 29 27 25 24 23 21 17 15 13 12 10 11 13 13 13 13 10 9 9 9 9 9 11 11 10 9 9 10 11 10 8 9 8 10 8 5 6 8 9 6 6 9
33 35 35 35 32 27 23 21 18 18 15 13 12 12 12 11 11 13 13 12 12 10 9 9 10 11 10 10 10 11 11 10 10 10 10 10 11 10 10 7 6 5 6 7 7 4 6
26 25 27 26 25 25 24 21 18 15 11 10 10 10 10 11 12 13 12 11 11 10 8 9 10 10 11 12 11 11 11 12 12 11 11 11 11 9 8 7 6 6 5 5 6 6 5
15 18 18 19 19 19 18 17 15 10 7 8 8 9 9 10 11 11 10 10 10 9 9 9 9 9 11 12 12 13 13 13 12 11 11 11 11 9 9 7 6 6 8 8 7 8 5
9 9 11 12 13 13 13 12 10 8 5 6 7 8 7 8 9 10 9 9 10 8 8 8 8 8 9 10 10 10 11 11 12 12 10 10 10 8 8 6 6 7 5 5 6 5 5
5 3 3 3 5 7 8 9 9 9 7 8 6 5 5 6 8 8 8 8 9 8 8 8 7 7 8 7 6 6 7 6 8 8 8 8 6 6 5 4 5 3 3 3 2 2 1
7 5 4 3 5 3 3 4 6 8 7 5 4 3 3 7 7 7 9 9 7 6 6 5 6 6 4 5 5 6 6 6 5 5 4 4 4 2 3 2 1 4 3 1 1 3 1
11 10 9 9 9 9 6 3 1 3 4 3 3 3 3 3 6 7 7 7 5 4 4 4 4 3 2 3 3 3 4 4 4 3 3 2 2 1 1 2 2 1 2 1 3 3 3
14 13 12 12 11 12 12 8 5 3 0 0 1 1 1 2 5 6 5 6 5 4 4 3 3 2 1 0 1 2 2 3 2 2 2 2 2 1 2 3 3 2 1 4 3 3 6
13 15 14 12 13 14 14 13 10 8 5 3 3 2 1 3 4 6 6 6 5 4 3 4 2 0 1 1 2 2 2 2 4 3 2 3 3 4 4 4 4 5 5 5 6 7 9
Wind_Direction
307 305 303 301 298 296 293 291 289 288 287 286 286 286 283 278 274 259 259 265 269 275 280 285 281 283 290 288 284 280 280 277 274 274 272 269 267 266 263 263 261 260 259 256 254 252 251
308 305 302 300 298 295 293 291 289 289 287 286 285 284 282 278 274 250 253 259 263 272 277 281 279 284 289 287 289 282 277 279 281 277 274 269 269 271 271 267 264 263 262 258 253 249 247
308 306 303 300 297 294 292 290 288 289 289 287 285 282 277 275 273 242 247 250 259 268 272 276 276 286 285 283 295 280 278 283 285 282 281 276 275 273 276 274 270 268 265 259 252 247 243
309 306 303 299 296 293 291 289 288 287 288 287 284 281 273 266 264 239 238 241 253 265 268 264 276 281 285 292 286 277 278 284 284 283 284 282 281 279 278 275 276 270 267 262 251 241 236
310 306 302 298 295 293 291 289 287 286 285 286 282 278 270 260 257 231 228 238 244 254 256 257 274 284 291 296 283 280 282 287 287 286 287 287 286 279 278 276 274 266 263 255 255 236 227
310 306 302 299 295 293 292 290 287 285 282 281 278 273 269 257 225 217 219 218 231 236 244 265 274 289 285 294 298 300 294 291 286 284 284 280 280 279 278 270 267 280 258 257 253 229 216
310 306 301 297 295 292 290 288 287 284 281 277 273 262 254 210 203 204 202 211 227 243 243 261 270 297 291 308 314 307 301 299 289 285 281 280 285 268 273 269 264 270 276 267 253 211 205
315 310 305 302 298 295 291 288 285 281 280 273 265 249 228 213 197 193 200 222 231 235 237 240 278 280 283 313 319 310 317 312 293 283 284 289 280 272 296 268 252 244 259 245 207 191 184
323 317 310 304 299 295 293 287 277 278 282 272 250 230 215 213 193 194 205 215 212 214 232 214 257 285 319 321 330 327 312 330 311 304 282 278 285 278 285 258 217 208 213 232 186 165 185
331 322 316 308 301 295 292 272 280 275 282 264 219 200 203 179 186 193 201 207 196 210 212 185 207 129 50 17 356 0 338 338 0 350 337 297 320 251 229 179 165 177 201 155 149 155 161
342 329 327 322 316 305 288 281 272 269 242 224 174 171 165 170 178 183 196 186 183 172 162 148 130 103 70 36 23 24 22 37 21 34 53 83 81 111 121 133 140 131 72 146 163 157 134
347 347 332 330 334 335 305 278 243 221 178 154 160 158 161 161 165 169 165 158 157 160 136 146 128 108 83 81 41 49 51 63 64 64 88 85 95 103 108 114 130 115 117 97 130 151 128
353 357 353 339 337 340 340 202 179 162 152 146 153 152 159 158 158 157 153 154 148 132 137 133 125 115 88 67 56 50 69 70 64 72 85 87 92 96 115 115 119 101 109 116 117 113 121
355 358 4 8 13 27 62 106 123 148 143 139 145 147 148 152 146 147 150 145 133 126 128 116 114 107 78 60 64 52 63 83 52 82 85 77 70 70 93 98 100 138 115 107 94 107 116
356 354 1 16 46 77 90 112 121 131 137 136 136 136 136 139 135 135 147 138 126 123 123 124 109 96 79 63 49 56 68 67 72 63 63 80 87 90 95 82 75 98 105 96 94 106 94
0 359 18 50 85 90 97 118 125 128 130 131 132 126 124 132 135 132 136 126 126 129 124 111 87 69 72 52 55 57 66 54 60 61 82 79 97 100 90 84 96 97 97 103 91 88 89
27 37 65 86 97 98 101 112 120 123 124 125 125 117 119 120 123 129 132 121 126 132 122 92 73 81 69 63 54 61 65 77 52 62 79 99 108 111 106 85 76 81 82 78 80 78 88
45 51 67 93 95 98 101 108 115 119 119 118 114 112 123 115 112 120 124 120 126 127 115 95 79 70 70 72 63 67 66 61 50 64 79 90 103 112 113 102 96 97 80 79 82 85 76
49 54 67 86 94 97 100 105 109 113 115 109 102 107 118 107 106 117 118 117 126 117 95 83 79 68 70 68 75 68 66 65 62 70 82 86 102 118 114 120 109 90 66 64 91 84 70
53 58 64 77 87 92 96 102 106 111 108 96 100 103 109 108 105 113 115 118 123 114 97 85 82 74 67 66 68 74 73 69 68 74 78 96 95 101 107 104 99 82 62 61 91 76 72
54 61 65 70 77 84 92 102 107 111 104 83 86 96 107 113 115 118 113 118 124 114 99 85 86 75 65 69 71 69 68 72 77 76 83 91 99 104 102 100 101 85 65 57 70 55 100
52 57 63 67 73 76 83 92 103 107 95 77 83 96 101 108 114 122 117 123 128 114 98 90 89 76 66 71 67 70 66 70 74 75 84 89 103 107 96 86 89 84 63 66 68 66 98
46 52 60 65 70 75 78 83 90 92 82 76 82 94 98 113 121 125 123 119 126 115 103 92 89 84 74 71 72 72 73 75 74 72 78 84 98 97 97 88 96 103 71 77 86 77 68
31 50 60 66 71 76 73 73 73 67 73 89 91 95 92 115 132 138 126 122 128 109 103 100 88 84 85 85 78 77 75 74 72 70 74 87 87 85 87 82 82 90 82 86 88 77 79
345 9 40 96 82 81 71 66 63 63 83 104 99 80 85 107 142 144 141 132 127 112 105 102 91 90 96 74 71 67 77 76 70 68 67 70 81 86 87 104 82 91 112 107 76 49 16
289 293 276 243 203 169 93 76 71 67 80 92 90 82 91 120 153 141 150 151 140 126 120 106 101 107 84 70 63 55 59 55 67 71 71 66 66 56 77 63 59 78 126 124 348 297 213
278 271 262 251 237 222 214 207 156 83 67 87 93 94 101 122 152 158 155 161 150 141 124 131 130 120 90 63 48 46 52 43 43 36 44 45 23 327 338 335 325 162 164 261 293 331 262
270 270 265 251 239 220 215 211 209 198 117 65 131 176 172 145 166 180 177 178 178 181 169 148 152 185 185 338 15 33 8 33 358 359 347 347 346 324 339 309 307 198 254 282 318 307 303
285 265 255 247 235 224 219 221 221 222 244 278 245 236 199 192 197 196 196 196 201 204 213 191 211 258 264 296 305 327 316 320 331 328 303 307 301 328 293 323 313 236 306 298 299 299 306